TimeCST,TemperatureF,Dew PointF,Humidity,Sea Level PressureIn,VisibilityMPH,Wind Direction,Wind SpeedMPH,Gust SpeedMPH,PrecipitationIn,Events,Conditions,WindDirDegrees,DateUTC
12:52 AM,30.9,28.9,92,30.00,2.0,SSE,12.7,-,N/A,,Partly Cloudy,150,2012-12-01 06:52:00
1:12 AM,30.2,28.4,93,29.95,1.8,SSE,12.7,-,N/A,,Partly Cloudy,150,2012-12-01 07:12:00
1:52 AM,28.9,28.0,96,29.99,1.8,SSE,10.4,-,N/A,,Partly Cloudy,150,2012-12-01 07:52:00
2:52 AM,30.9,28.9,92,29.96,1.8,SSE,11.5,-,N/A,,Clear,160,2012-12-01 08:52:00
3:00 AM,30.2,28.4,93,29.91,1.8,SSE,11.5,-,N/A,,Partly Cloudy,160,2012-12-01 09:00:00
3:52 AM,30.0,28.9,96,29.92,1.8,SSE,15.0,-,N/A,,Clear,150,2012-12-01 09:52:00
4:02 AM,30.2,28.4,93,29.88,2.0,SSE,15.0,-,N/A,,Clear,160,2012-12-01 10:02:00
4:52 AM,30.9,28.9,92,29.90,2.0,SSE,12.7,-,N/A,,Clear,160,2012-12-01 10:52:00
5:52 AM,32.0,30.9,96,29.89,2.5,South,11.5,-,N/A,,Partly Cloudy,170,2012-12-01 11:52:00
6:05 AM,33.8,30.2,87,29.84,2.5,South,12.7,-,N/A,,Mostly Cloudy,170,2012-12-01 12:05:00
6:25 AM,35.6,32.0,87,29.84,3.0,South,11.5,-,N/A,,Overcast,170,2012-12-01 12:25:00
6:39 AM,35.6,32.0,87,29.83,3.0,South,13.8,-,N/A,,Overcast,170,2012-12-01 12:39:00
6:52 AM,35.1,33.1,92,29.86,3.0,SSE,15.0,-,N/A,,Overcast,160,2012-12-01 12:52:00
7:36 AM,37.4,35.6,93,29.82,4.0,South,13.8,-,N/A,,Overcast,170,2012-12-01 13:36:00
7:44 AM,37.4,35.6,93,29.81,4.0,South,15.0,-,N/A,,Overcast,170,2012-12-01 13:44:00
7:52 AM,37.9,35.1,89,29.85,4.0,South,11.5,-,N/A,,Overcast,170,2012-12-01 13:52:00
8:06 AM,37.4,35.6,93,29.81,2.5,South,13.8,-,N/A,,Overcast,170,2012-12-01 14:06:00
8:52 AM,39.9,37.9,93,29.84,1.8,South,16.1,-,N/A,,Overcast,180,2012-12-01 14:52:00
9:11 AM,39.2,37.4,93,29.80,0.8,South,17.3,-,N/A,,Overcast,180,2012-12-01 15:11:00
9:52 AM,41.0,39.9,96,29.81,0.2,South,15.0,-,N/A,Fog,Fog,180,2012-12-01 15:52:00
10:52 AM,45.0,44.1,97,29.82,0.5,SSW,15.0,20.7,N/A,Fog,Fog,200,2012-12-01 16:52:00
11:52 AM,46.0,45.0,96,29.78,0.8,SSW,13.8,-,N/A,,Overcast,200,2012-12-01 17:52:00
12:12 PM,46.4,44.6,93,29.74,1.0,SSW,13.8,-,N/A,,Overcast,200,2012-12-01 18:12:00
12:30 PM,46.4,46.4,100,29.73,1.5,SSW,15.0,-,N/A,,Overcast,200,2012-12-01 18:30:00
12:44 PM,48.2,46.4,93,29.74,2.0,SSW,11.5,-,N/A,,Overcast,200,2012-12-01 18:44:00
12:52 PM,48.0,46.0,93,29.76,2.5,SW,5.8,-,N/A,,Overcast,220,2012-12-01 18:52:00
1:02 PM,48.2,46.4,93,29.71,3.0,South,12.7,18.4,N/A,,Overcast,190,2012-12-01 19:02:00
1:52 PM,50.0,46.9,89,29.75,4.0,SW,16.1,-,N/A,,Overcast,220,2012-12-01 19:52:00
2:32 PM,51.8,46.4,82,29.71,5.0,SW,13.8,-,N/A,,Haze,220,2012-12-01 20:32:00
2:48 PM,53.6,46.4,77,29.72,5.0,SW,15.0,23.0,N/A,,Haze,220,2012-12-01 20:48:00
2:52 PM,53.1,46.9,80,29.74,5.0,SW,13.8,23.0,N/A,,Haze,220,2012-12-01 20:52:00
3:52 PM,51.1,44.1,77,29.76,5.0,SW,12.7,-,N/A,,Haze,230,2012-12-01 21:52:00
4:52 PM,46.0,41.0,83,29.80,3.0,WSW,4.6,-,N/A,,Haze,250,2012-12-01 22:52:00
5:52 PM,43.0,39.9,89,29.81,3.0,SW,8.1,-,N/A,,Clear,220,2012-12-01 23:52:00
6:20 PM,41.0,37.4,87,29.79,2.5,WSW,9.2,-,N/A,,Clear,240,2012-12-02 00:20:00
6:52 PM,41.0,39.0,93,29.83,2.5,West,6.9,-,N/A,,Clear,260,2012-12-02 00:52:00
7:12 PM,42.8,41.0,93,29.80,3.0,West,9.2,-,N/A,,Clear,260,2012-12-02 01:12:00
7:52 PM,41.0,39.0,93,29.84,3.0,WNW,10.4,-,N/A,,Clear,290,2012-12-02 01:52:00
8:01 PM,39.2,37.4,93,29.81,2.5,NW,8.1,-,N/A,,Clear,310,2012-12-02 02:01:00
8:34 PM,39.2,37.4,93,29.82,3.0,WNW,6.9,-,N/A,,Partly Cloudy,290,2012-12-02 02:34:00
8:52 PM,39.0,37.0,93,29.84,3.0,WNW,6.9,-,N/A,,Clear,300,2012-12-02 02:52:00
9:52 PM,37.0,34.0,89,29.85,5.0,NW,6.9,-,N/A,,Mostly Cloudy,320,2012-12-02 03:52:00
10:52 PM,36.0,34.0,93,29.87,5.0,NW,10.4,-,N/A,,Partly Cloudy,320,2012-12-02 04:52:00
11:52 PM,35.1,32.0,89,29.88,5.0,NW,6.9,-,N/A,,Clear,320,2012-12-02 05:52:00